User: anonymous   Login
Location: Unspecified
(34.4480°N, 0.0000°E)
Time: 09:58:37
(UTC+00:00)
Language:

JUGNU - Orbit

View from above orbital plane
View from above orbital plane
View from above satellite
View from above satellite

Ground track
Ground track

The orbit data is extracted from the following two-line orbital elements,

1 37839U 11058B   20025.48443365  .00000300  00000-0  17786-4 0  9997
2 37839  19.9623  75.8422 0018674 241.0419 251.6386 14.12669929428517
Epoch (UTC): 25 January 2020 11:37:35
Eccentricity: 0.0018674
inclination: 19.9623°
perigee height: 837 km
apogee height: 864 km
right ascension of ascending node: 75.8422°
argument of perigee: 241.0419°
revolutions per day: 14.12669929
mean anomaly at epoch: 251.6386°
orbit number at epoch: 42851

The dashed part of the orbit path shows where the satellite is in the earth's shadow,  

DLR